TimeEST,TemperatureF,Dew PointF,Humidity,Sea Level PressureIn,VisibilityMPH,Wind Direction,Wind SpeedMPH,Gust SpeedMPH,PrecipitationIn,Events,Conditions,WindDirDegrees,DateUTC
12:06 AM,21.2,19.4,93,29.87,1.8,NW,8.1,-,0.00,Snow,Light Snow,310,2013-02-17 05:06:00
12:51 AM,19.4,17.6,93,29.87,1.8,NW,9.2,16.1,0.00,Snow,Light Snow,320,2013-02-17 05:51:00
12:53 AM,19.9,17.1,89,29.94,2.0,NW,10.4,16.1,0.00,Snow,Light Snow,310,2013-02-17 05:53:00
1:15 AM,19.4,17.6,93,29.88,1.8,Variable,6.9,-,0.00,Snow,Light Snow,0,2013-02-17 06:15:00
1:21 AM,19.4,17.6,93,29.88,2.5,NW,10.4,16.1,0.00,Snow,Light Snow,320,2013-02-17 06:21:00
1:26 AM,19.4,15.8,86,29.88,4.0,NW,5.8,16.1,0.00,Snow,Light Snow,320,2013-02-17 06:26:00
1:42 AM,19.4,15.8,86,29.88,2.5,WNW,9.2,16.1,0.00,Snow,Light Snow,290,2013-02-17 06:42:00
1:50 AM,19.4,15.8,86,29.88,3.0,WNW,9.2,-,0.00,Snow,Light Snow,300,2013-02-17 06:50:00
1:53 AM,19.9,15.1,81,29.95,4.0,WNW,9.2,-,0.00,Snow,Light Snow,290,2013-02-17 06:53:00
2:04 AM,19.4,15.8,86,29.88,2.5,WNW,10.4,16.1,0.00,Snow,Light Snow,290,2013-02-17 07:04:00
2:25 AM,19.4,15.8,86,29.88,1.5,Variable,6.9,16.1,0.00,Snow,Light Snow,0,2013-02-17 07:25:00
2:46 AM,19.4,17.6,93,29.89,1.5,NW,8.1,-,0.00,Snow,Light Snow,320,2013-02-17 07:46:00
2:53 AM,19.0,17.1,92,29.96,1.0,NW,9.2,-,0.00,Snow,Light Snow,320,2013-02-17 07:53:00
3:00 AM,19.4,17.6,93,29.89,0.8,NNW,9.2,-,0.00,Snow,Light Snow,330,2013-02-17 08:00:00
3:33 AM,17.6,15.8,93,29.89,1.2,NNW,6.9,-,0.00,Snow,Light Snow,330,2013-02-17 08:33:00
3:45 AM,19.4,15.8,86,29.90,2.5,NW,5.8,-,0.00,Snow,Light Snow,320,2013-02-17 08:45:00
3:53 AM,18.0,16.0,92,29.96,1.8,NNW,6.9,-,0.00,Snow,Light Snow,340,2013-02-17 08:53:00
4:06 AM,17.6,15.8,93,29.90,0.8,NW,3.5,-,0.00,Snow,Light Snow,310,2013-02-17 09:06:00
4:50 AM,17.6,14.0,86,29.91,1.5,NW,8.1,18.4,0.00,Snow,Light Snow,310,2013-02-17 09:50:00
4:53 AM,17.1,14.0,88,29.98,1.5,WNW,9.2,18.4,0.00,Snow,Light Snow,300,2013-02-17 09:53:00
5:01 AM,17.6,14.0,86,29.91,0.8,WNW,6.9,-,0.00,Snow,Light Snow,300,2013-02-17 10:01:00
5:53 AM,16.0,12.0,84,30.00,0.8,WNW,8.1,-,0.00,,Mist,290,2013-02-17 10:53:00
6:00 AM,15.8,12.2,86,29.93,5.0,WNW,6.9,-,0.00,Snow,Light Snow,290,2013-02-17 11:00:00
6:53 AM,15.8,10.4,79,29.94,6.0,WNW,9.2,19.6,N/A,Snow,Light Snow,290,2013-02-17 11:53:00
7:27 AM,15.8,10.4,79,29.95,4.0,West,9.2,-,0.00,Snow,Light Snow,280,2013-02-17 12:27:00
7:44 AM,15.8,10.4,79,29.95,9.0,West,11.5,-,0.00,,Mostly Cloudy,280,2013-02-17 12:44:00
7:53 AM,15.1,10.9,84,30.03,5.0,West,11.5,-,0.00,Snow,Light Snow,280,2013-02-17 12:53:00
8:12 AM,15.8,12.2,86,29.96,0.5,West,11.5,20.7,0.00,Fog-Snow,Light Snow,280,2013-02-17 13:12:00
8:38 AM,15.8,12.2,86,29.97,0.5,West,13.8,19.6,0.00,Fog-Snow,Snow,280,2013-02-17 13:38:00
8:50 AM,15.8,12.2,86,29.97,1.0,West,11.5,19.6,0.00,Snow,Light Snow,280,2013-02-17 13:50:00
8:53 AM,16.0,12.0,84,30.05,2.0,WNW,13.8,21.9,0.00,Snow,Light Snow,290,2013-02-17 13:53:00
9:04 AM,17.6,10.4,73,29.97,4.0,WNW,11.5,18.4,0.00,Snow,Light Snow,300,2013-02-17 14:04:00
9:16 AM,15.8,10.4,79,29.98,2.5,WNW,11.5,24.2,0.00,Snow,Light Snow,300,2013-02-17 14:16:00
9:20 AM,15.8,10.4,79,29.98,3.0,West,13.8,24.2,0.00,Snow,Light Snow,280,2013-02-17 14:20:00
9:53 AM,18.0,12.0,78,30.06,7.0,NW,11.5,20.7,0.00,,Overcast,310,2013-02-17 14:53:00
10:53 AM,19.0,12.0,74,30.09,7.0,Variable,5.8,17.3,0.00,Snow,Light Snow,0,2013-02-17 15:53:00
11:10 AM,19.4,10.4,68,30.02,10.0,WNW,8.1,18.4,0.00,,Overcast,300,2013-02-17 16:10:00
11:35 AM,19.4,10.4,68,30.03,10.0,WNW,15.0,23.0,0.00,,Overcast,290,2013-02-17 16:35:00
11:53 AM,19.9,10.0,65,30.10,5.0,NW,9.2,23.0,0.00,Snow,Light Snow,310,2013-02-17 16:53:00
12:28 PM,19.4,10.4,68,30.03,1.8,NW,10.4,18.4,0.00,Snow,Light Snow,320,2013-02-17 17:28:00
12:35 PM,19.4,12.2,74,30.03,5.0,NNW,12.7,17.3,0.00,Snow,Light Snow,330,2013-02-17 17:35:00
12:53 PM,19.9,12.0,71,30.10,3.0,NW,6.9,-,0.00,Snow,Light Snow,320,2013-02-17 17:53:00
1:08 PM,19.4,8.6,63,30.02,5.0,WNW,16.1,21.9,0.00,Snow,Light Snow,290,2013-02-17 18:08:00
1:18 PM,19.4,8.6,63,30.02,4.0,WNW,17.3,25.3,0.00,Snow,Light Snow,290,2013-02-17 18:18:00
1:32 PM,19.4,10.4,68,30.03,1.8,WNW,16.1,28.8,0.00,Snow,Light Snow,290,2013-02-17 18:32:00
1:43 PM,19.4,12.2,74,30.03,3.0,NW,16.1,23.0,0.00,Snow,Light Snow,320,2013-02-17 18:43:00
1:53 PM,21.0,10.9,65,30.10,3.0,NNW,13.8,23.0,0.00,Snow,Light Snow,330,2013-02-17 18:53:00
2:01 PM,19.4,10.4,68,30.03,1.8,NW,12.7,23.0,0.00,Snow,Light Snow,320,2013-02-17 19:01:00
2:10 PM,19.4,12.2,74,30.03,3.0,NW,9.2,19.6,0.00,Snow,Light Snow,320,2013-02-17 19:10:00
2:14 PM,19.4,12.2,74,30.04,1.2,NW,13.8,23.0,0.00,Snow,Light Snow,320,2013-02-17 19:14:00
2:22 PM,19.4,14.0,80,30.03,3.0,NW,9.2,19.6,0.00,Snow,Light Snow,320,2013-02-17 19:22:00
2:33 PM,21.2,12.2,68,30.03,3.0,WNW,11.5,19.6,0.00,,Haze,300,2013-02-17 19:33:00
2:42 PM,19.4,12.2,74,30.03,3.0,WNW,8.1,16.1,0.00,Snow,Light Snow,300,2013-02-17 19:42:00
2:49 PM,19.4,10.4,68,30.03,4.0,NW,11.5,20.7,0.00,Snow,Light Snow,320,2013-02-17 19:49:00
2:53 PM,21.0,10.0,63,30.11,8.0,NNW,18.4,26.5,0.00,,Mostly Cloudy,330,2013-02-17 19:53:00
3:53 PM,21.0,6.1,53,30.12,10.0,West,13.8,24.2,N/A,,Overcast,280,2013-02-17 20:53:00
4:53 PM,19.0,10.0,68,30.15,10.0,NNW,11.5,23.0,N/A,,Overcast,330,2013-02-17 21:53:00
5:53 PM,19.0,5.0,54,30.17,10.0,West,9.2,23.0,N/A,,Mostly Cloudy,280,2013-02-17 22:53:00
6:53 PM,19.0,5.0,54,30.21,10.0,WNW,9.2,16.1,N/A,,Overcast,300,2013-02-17 23:53:00
7:53 PM,18.0,3.9,54,30.23,10.0,West,12.7,21.9,N/A,,Overcast,280,2013-02-18 00:53:00
8:53 PM,18.0,3.9,54,30.25,10.0,NW,9.2,-,N/A,,Overcast,320,2013-02-18 01:53:00
9:53 PM,17.1,3.0,54,30.27,10.0,NW,9.2,-,N/A,,Overcast,310,2013-02-18 02:53:00
10:53 PM,16.0,3.9,59,30.28,10.0,West,6.9,-,N/A,,Mostly Cloudy,270,2013-02-18 03:53:00